Weather History for Warrenton, VA

Change the Weather History Date:

Thursday, April 4, 2013

  Actual Average (KHEF) Record (KHEF)
Temperature  
Mean Temperature 36 °F -  
Max Temperature 51 °F 60 °F 86 °F (2011)
Min Temperature 21 °F 37 °F 21 °F (2013)
Degree Days  
Heating Degree Days 29    
Moisture  
Dew Point 25 °F    
Average Humidity 66    
Maximum Humidity 100    
Minimum Humidity 32    
Precipitation  
Precipitation 0.04 in - - ()
Sea Level Pressure  
Sea Level Pressure 30.29 in    
Wind  
Wind Speed 3 mph (South)    
Max Wind Speed 9 mph    
Max Gust Speed 18 mph    
Visibility 10 miles    
Events Rain    
Averages and records for this station are not official NWS values.
T = Trace of Precipitation, MM = Missing Value Source: NWS Daily Summary

Daily Weather History Graph

Daily Weather History Graph

Search for Another Location

Airport:

Trip Planner

Search our weather history database for the weather conditions in past years. The results will help you decide how hot, cold, wet, or windy it might be!

Date:

Astronomy

Apr. 04, 2013 Rise Set
Actual Time 6:50 AM EDT 7:37 PM EDT
Civil Twilight 6:23 AM EDT 8:04 PM EDT
Nautical Twilight 5:52 AM EDT 8:36 PM EDT
Astronomical Twilight 5:19 AM EDT 9:08 PM EDT
Moon 3:12 AM EDT (4/4) 1:57 PM EDT (4/4)
Length of Visible Light 13h 40m
Length of Day
12h 46m
Waning Crescent, 34% of the Moon is Illuminated
Apr 4
Waning Crescent
Apr 10
New
Apr 18
First Quarter
Apr 25
Full
May 2
Last Quarter

Hourly Weather History & Observations

Time (EDT) Temp. Windchill Dew Point Humidity Pressure Visibility Wind Dir Wind Speed Gust Speed Precip Events Conditions
12:15 AM 36.1 °F 32.3 °F 23.7 °F 61% 30.39 in 10.0 mi North 4.6 mph - N/A   Clear
12:35 AM 34.2 °F 28.2 °F 23.9 °F 66% 30.38 in 10.0 mi North 6.9 mph - N/A   Clear
12:55 AM 34.5 °F 30.4 °F 22.6 °F 62% 30.39 in 10.0 mi North 4.6 mph - N/A   Clear
1:15 AM 33.1 °F 30.0 °F 22.1 °F 64% 30.38 in 10.0 mi North 3.5 mph - N/A   Clear
1:35 AM 33.8 °F - 21.2 °F 60% 30.38 in 10.0 mi Calm Calm - N/A   Clear
1:55 AM 27.0 °F - 23.2 °F 86% 30.38 in 10.0 mi Calm Calm - N/A   Clear
2:15 AM 27.5 °F - 22.6 °F 82% 30.39 in 10.0 mi Calm Calm - N/A   Clear
2:35 AM 25.2 °F - 21.4 °F 86% 30.38 in 10.0 mi Calm Calm - N/A   Clear
2:55 AM 23.2 °F - 20.3 °F 89% 30.39 in 10.0 mi Calm Calm - N/A   Clear
3:15 AM 22.1 °F - 20.8 °F 95% 30.39 in 10.0 mi Calm Calm - N/A   Clear
3:35 AM 24.3 °F - 21.0 °F 87% 30.39 in 10.0 mi Calm Calm - N/A   Clear
3:55 AM 22.5 °F - 20.7 °F 93% 30.39 in 10.0 mi Calm Calm - N/A   Clear
4:15 AM 22.8 °F - 21.7 °F 96% 30.39 in 10.0 mi Calm Calm - N/A   Clear
4:35 AM 22.1 °F - 20.3 °F 93% 30.39 in 10.0 mi Calm Calm - N/A   Clear
4:55 AM 22.3 °F - 20.8 °F 94% 30.39 in 10.0 mi Calm Calm - N/A   Clear
5:15 AM 22.1 °F - 21.2 °F 96% 30.40 in 10.0 mi Calm Calm - N/A   Clear
5:35 AM 23.5 °F 16.4 °F 22.5 °F 96% 30.39 in 10.0 mi NNE 5.8 mph - N/A   Clear
5:55 AM 27.1 °F 20.7 °F 22.3 °F 82% 30.38 in 10.0 mi NNE 5.8 mph - N/A   Clear
6:15 AM 24.3 °F - 21.4 °F 89% 30.40 in 10.0 mi Calm Calm - N/A   Clear
6:35 AM 21.9 °F - 20.5 °F 94% 30.40 in 10.0 mi Calm Calm - N/A   Clear
6:55 AM 25.5 °F 21.3 °F 21.6 °F 85% 30.38 in 10.0 mi NNE 3.5 mph - N/A   Clear
7:15 AM 24.8 °F - 21.9 °F 89% 30.39 in 10.0 mi Calm Calm - N/A   Clear
7:35 AM 24.8 °F - 23.9 °F 96% 30.40 in 10.0 mi Calm Calm - N/A   Clear
7:55 AM 27.3 °F - 25.3 °F 92% 30.41 in 10.0 mi Calm Calm - N/A   Clear
8:15 AM 28.9 °F - 26.1 °F 89% 30.41 in 10.0 mi Calm Calm - N/A   Clear
8:35 AM 31.5 °F - 24.4 °F 75% 30.41 in 10.0 mi Calm Calm - N/A   Clear
8:55 AM 33.8 °F - 25.5 °F 72% 30.41 in 10.0 mi Calm Calm - N/A   Clear
9:15 AM 35.1 °F - 25.7 °F 69% 30.41 in 10.0 mi Calm Calm - N/A   Clear
9:35 AM 37.2 °F - 24.3 °F 60% 30.41 in 10.0 mi Calm Calm - N/A   Clear
9:55 AM 38.1 °F - 23.7 °F 56% 30.41 in 10.0 mi Calm Calm - N/A   Clear
10:15 AM 39.2 °F - 23.5 °F 53% 30.40 in 10.0 mi Calm Calm - N/A   Clear
10:35 AM 40.6 °F 37.5 °F 21.6 °F 47% 30.40 in 10.0 mi South 4.6 mph - N/A   Clear
10:55 AM 42.1 °F - 21.7 °F 44% 30.39 in 10.0 mi Calm Calm - N/A   Clear
11:15 AM 42.8 °F 40.1 °F 22.6 °F 45% 30.38 in 10.0 mi South 4.6 mph - N/A   Clear
11:35 AM 43.3 °F 40.7 °F 23.0 °F 45% 30.37 in 10.0 mi South 4.6 mph - N/A   Clear
11:55 AM 43.3 °F 40.7 °F 22.3 °F 43% 30.37 in 10.0 mi South 4.6 mph - N/A   Clear
12:35 PM 45.1 °F 43.7 °F 20.8 °F 38% 30.33 in 10.0 mi South 3.5 mph - N/A   Clear
12:55 PM 46.9 °F - 22.3 °F 38% 30.32 in 10.0 mi South 3.5 mph - N/A   Clear
1:15 PM 47.5 °F - 23.0 °F 38% 30.30 in 10.0 mi SSW 4.6 mph - N/A   Clear
1:35 PM 48.6 °F - 22.5 °F 36% 30.29 in 10.0 mi West 3.5 mph - N/A   Clear
1:55 PM 48.7 °F - 22.6 °F 36% 30.28 in 10.0 mi Calm Calm - N/A   Clear
2:15 PM 51.1 °F - 22.6 °F 33% 30.26 in 10.0 mi South 6.9 mph - N/A   Clear
2:35 PM 51.1 °F - 21.7 °F 32% 30.25 in 10.0 mi SSE 3.5 mph - N/A   Clear
2:55 PM 50.2 °F - 21.9 °F 33% 30.24 in 10.0 mi South 3.5 mph - N/A   Clear
3:15 PM 50.4 °F - 22.6 °F 34% 30.23 in 10.0 mi SSE 5.8 mph - N/A   Clear
3:35 PM 50.4 °F - 23.2 °F 35% 30.23 in 10.0 mi South 8.1 mph - N/A   Clear
3:55 PM 49.8 °F - 22.1 °F 34% 30.23 in 10.0 mi South 8.1 mph - N/A   Clear
4:15 PM 49.3 °F - 22.8 °F 35% 30.22 in 10.0 mi South 5.8 mph - N/A   Clear
4:35 PM 49.6 °F - 22.6 °F 35% 30.23 in 10.0 mi South 4.6 mph - N/A   Clear
4:55 PM 50.0 °F - 23.0 °F 35% 30.20 in 10.0 mi South 5.8 mph - N/A   Clear
5:15 PM 50.0 °F - 23.5 °F 36% 30.20 in 10.0 mi South 6.9 mph - N/A   Clear
5:35 PM 49.1 °F - 25.0 °F 39% 30.19 in 10.0 mi SW 4.6 mph - N/A   Clear
5:55 PM 48.9 °F - 24.8 °F 39% 30.18 in 10.0 mi SW 3.5 mph - N/A   Scattered Clouds
6:15 PM 48.9 °F - 24.8 °F 39% 30.16 in 10.0 mi Calm Calm - N/A   Scattered Clouds
6:35 PM 48.6 °F - 25.9 °F 41% 30.16 in 10.0 mi South 3.5 mph - N/A   Overcast
6:55 PM 48.2 °F - 25.9 °F 42% 30.16 in 10.0 mi South 5.8 mph - N/A   Overcast
7:15 PM 48.4 °F - 25.2 °F 40% 30.16 in 10.0 mi South 5.8 mph - N/A   Overcast
7:35 PM 48.2 °F - 25.3 °F 41% 30.15 in 10.0 mi South 3.5 mph - N/A   Overcast
7:55 PM 47.8 °F - 25.3 °F 41% 30.15 in 10.0 mi South 4.6 mph - N/A   Overcast
8:15 PM 47.5 °F - 25.9 °F 43% 30.14 in 10.0 mi South 4.6 mph - N/A   Overcast
8:35 PM 42.3 °F 36.8 °F 35.2 °F 76% 30.16 in 10.0 mi South 9.2 mph 18.4 mph N/A Rain Light Rain
8:55 PM 39.7 °F 34.9 °F 36.9 °F 89% 30.16 in 10.0 mi South 6.9 mph - N/A Rain Rain
9:15 PM 38.8 °F 36.5 °F 37.8 °F 96% 30.15 in 10.0 mi SSW 3.5 mph - N/A Rain Light Rain
9:35 PM 38.5 °F 36.1 °F 38.3 °F 99% 30.14 in 10.0 mi SW 3.5 mph - N/A Rain Light Rain
9:55 PM 38.3 °F 35.9 °F 38.3 °F 100% 30.13 in 10.0 mi SW 3.5 mph - 0.01 in Rain Light Rain
10:15 PM 38.3 °F 35.9 °F 38.3 °F 100% 30.12 in 10.0 mi SSW 3.5 mph - N/A Rain Light Rain
10:35 PM 38.3 °F - 38.3 °F 100% 30.12 in 10.0 mi Calm Calm - N/A Rain Light Rain
10:55 PM 38.3 °F - 38.3 °F 100% 30.11 in 10.0 mi Calm Calm - N/A Rain Light Rain
11:15 PM 38.3 °F - 38.3 °F 100% 30.09 in 5.0 mi Calm Calm - 0.01 in Rain Rain
11:35 PM 38.3 °F - 38.3 °F 100% 30.08 in 7.0 mi Calm Calm - 0.02 in Rain Light Rain
11:55 PM 38.3 °F - 38.3 °F 100% 30.07 in 7.0 mi Calm Calm - 0.03 in Rain Light Rain